Kailua Kona, HI

10:45 PM HST on August 27, 2016 (GMT -1000)
Kona International At Keahole

Weather History for PHKO - March, 2011

Change the Weather History Date:

Monday, March 14, 2011

  Actual Average Record
Temperature  
Mean Temperature 77 °F -  
Max Temperature 82 °F 79 °F 88 °F (1986)
Min Temperature 72 °F 67 °F 63 °F (1993)
Cooling Degree Days 12    
Growing Degree Days 27 (Base 50)    
Moisture  
Dew Point 62 °F    
Average Humidity 60    
Maximum Humidity 71    
Minimum Humidity 47    
Precipitation  
Precipitation 0.00 in - - ()
Sea Level Pressure  
Sea Level Pressure 30.06 in    
Wind  
Wind Speed 7 mph (SSW)    
Max Wind Speed 12 mph    
Max Gust Speed -    
Visibility 10 miles    
Events      
Averages and records for this station are not official NWS values.
T = Trace of Precipitation, MM = Missing Value Source: NWS Daily Summary

Daily Weather History Graph

Daily Weather History Graph

Search for Another Location

Airport or City:

Trip Planner

Search our weather history database for the weather conditions in past years. The results will help you decide how hot, cold, wet, or windy it might be!

Date:

Astronomy

Mar. 14, 2011 Rise Set
Actual Time 6:33 AM HST 6:33 PM HST
Civil Twilight 6:11 AM HST 6:55 PM HST
Nautical Twilight 5:45 AM HST 7:21 PM HST
Astronomical Twilight 5:20 AM HST 7:46 PM HST
Moon 1:44 PM HST (3/14) 2:21 AM HST (3/14)
Length of Visible Light 12h 44m
Length of Day
12h 00m
Waxing Gibbous, 70% of the Moon is Illuminated
Mar 14
Waxing Gibbous
Mar 19
Full
Mar 26
Last Quarter
Apr 3
New
Apr 11
First Quarter

Hourly Weather History & Observations

Time (HST) Temp. Heat Index Dew Point Humidity Pressure Visibility Wind Dir Wind Speed Gust Speed Precip Events Conditions
12:53 AM 73.0 °F - 60.1 °F 64% 30.09 in 10.0 mi East 8.1 mph - N/A   Clear
1:53 AM 73.9 °F - 61.0 °F 64% 30.07 in 10.0 mi East 4.6 mph - N/A   Overcast
2:53 AM 73.9 °F - 62.1 °F 66% 30.05 in 10.0 mi East 3.5 mph - N/A   Mostly Cloudy
3:53 AM 73.9 °F - 63.0 °F 68% 30.04 in 10.0 mi East 4.6 mph - N/A   Mostly Cloudy
4:53 AM 72.0 °F - 61.0 °F 68% 30.04 in 10.0 mi ENE 3.5 mph - N/A   Scattered Clouds
5:53 AM 73.0 °F - 61.0 °F 66% 30.06 in 10.0 mi East 5.8 mph - N/A   Overcast
6:53 AM 73.0 °F - 63.0 °F 71% 30.07 in 10.0 mi East 3.5 mph - N/A   Partly Cloudy
7:53 AM 75.9 °F - 64.0 °F 67% 30.10 in 10.0 mi ESE 4.6 mph - N/A   Mostly Cloudy
8:53 AM 77.0 °F - 64.0 °F 64% 30.11 in 10.0 mi West 4.6 mph - N/A   Clear
9:53 AM 77.0 °F - 64.0 °F 64% 30.11 in 10.0 mi West 6.9 mph - N/A   Overcast
10:53 AM 80.1 °F 81.7 °F 64.0 °F 58% 30.10 in 10.0 mi West 8.1 mph - N/A   Clear
11:53 AM 81.0 °F 82.5 °F 64.0 °F 56% 30.08 in 10.0 mi WNW 10.4 mph - N/A   Partly Cloudy
12:53 PM 82.9 °F 84.0 °F 63.0 °F 51% 30.04 in 10.0 mi West 11.5 mph - N/A   Scattered Clouds
1:53 PM 82.0 °F 82.4 °F 60.1 °F 47% 30.01 in 10.0 mi West 9.2 mph - N/A   Overcast
2:53 PM 81.0 °F 81.7 °F 61.0 °F 50% 30.00 in 10.0 mi West 9.2 mph - N/A   Clear
3:53 PM 82.0 °F 83.0 °F 62.1 °F 51% 29.99 in 10.0 mi WSW 9.2 mph - N/A   Clear
4:53 PM 79.0 °F - 62.1 °F 56% 29.99 in 10.0 mi WSW 10.4 mph - N/A   Clear
5:53 PM 79.0 °F - 61.0 °F 54% 30.01 in 10.0 mi SSW 8.1 mph - N/A   Clear
6:53 PM 78.1 °F - 62.1 °F 58% 30.03 in 10.0 mi South 9.2 mph - N/A   Partly Cloudy
7:53 PM 78.1 °F - 62.1 °F 58% 30.05 in 10.0 mi South 6.9 mph - N/A   Overcast
8:53 PM 78.1 °F - 63.0 °F 60% 30.08 in 10.0 mi SSW 8.1 mph - N/A   Overcast
9:53 PM 77.0 °F - 63.0 °F 62% 30.09 in 10.0 mi SSW 6.9 mph - N/A   Overcast
10:53 PM 77.0 °F - 64.0 °F 64% 30.10 in 10.0 mi SW 5.8 mph - N/A   Overcast
11:53 PM 77.0 °F - 64.0 °F 64% 30.09 in 10.0 mi SW 5.8 mph - N/A   Overcast